Location: Cajon Junction
(34.3117°N, 117.4748°W)
Time: 16:24:21
(UTC+00:00)

Cosmos 1943 - Pass Details

Date: 18 April 2024
Orbit: 832 x 849 km, 71.0° (Epoch: 20 May)

Event Time Altitude Azimuth Distance (km) Brightness Sun altitude
Exits shadow 12:45:06 - 229° (SW) 2,883 5.4 -6.6°
Reaches altitude 10° 12:46:20 10° 234° (SW) 2,465 5.0 -6.4°
Maximum altitude 12:51:24 33° 298° (WNW) 1,388 4.0 -5.4°
Drops below altitude 10° 12:56:30 10° 1° (N) 2,478 5.9 -4.4°
Sets 12:59:13 0° 11° (NNE) 3,417 6.8 -3.8°
